Preview of NWS' New Version of Forecast
This preview is not operational and should not be used for support decisions.

Regional Weather Roundup (RWR)

Issued by National Weather Service (NWS)

                            
700 
ASUS44 KMEG 262210
RWRTN 
TENNESSEE HOURLY STATE WEATHER ROUNDUP
NATIONAL WEATHER SERVICE MEMPHIS TN
500 PM CDT TUE MAR 26 2019

TNZ002-004-019-021-049-052-054-088>092-262300-
WEST TENNESSEE
  
CITY           SKY/WX    TMP DP  RH WIND       PRES   REMARKS
MEMPHIS INTL   FAIR      57  28  33 N17G24    30.30R                  
NWS MEMPHIS      N/A     59 N/A N/A MISG        N/A                   
JACKSON        FAIR      57  24  28 N14G23    30.28S                  
DYERSBURG      FAIR      56  25  30 N12       30.32S                  
SOMERVILLE     SUNNY     57  27  30 N12G20    30.27S                  
COVINGTON      SUNNY     55  30  38 N13G21    30.30S                  
UNION CITY     SUNNY     55  21  26 N13G18    30.30S                  
BOLIVAR        SUNNY     57  23  26 NW9G21    30.26S                  
PARIS          SUNNY     55  19  24 N8G17     30.29S                  
HUNTINGDON     SUNNY     55  19  24 NE14      30.28S                  
LEXINGTON      SUNNY     57  12  17 N12G22    30.25S                  
SELMER         SUNNY     57  18  21 N13       30.24R                  
SAVANNAH       SUNNY     59  18  20 N13       30.23S                  
$$

TNZ008-025-027-028-033-062-065-066-262300-
NORTH MIDDLE TENNESSEE
  
CITY           SKY/WX    TMP DP  RH WIND       PRES   REMARKS
NASHVILLE      FAIR      57  15  19 N14G21    30.26S                  
DICKSON        CLEAR     54  14  20 N13       30.25S                  
CLARKSVILLE    FAIR      55  15  20 N13       30.29S                  
LEBANON        CLEAR     55  16  21 NE12G17   30.24S                  
SMYRNA         FAIR      57  14  18 N15       30.26S                  
MURFREESBORO   CLEAR     57  16  19 N16       30.22S                  
COOKEVILLE     SUNNY     55  18  22 NE9G17    30.21S                  
LIVINGSTON     CLEAR     52  19  28 N13G18    30.22S                  
GALLATIN       CLEAR     55  16  21 NE13G22   30.29S                  
CROSSVILLE     FAIR      54  27  35 N12G18    30.19S                  
ROCKWOOD       CLEAR     55  28  35 N10G18    30.17S                  
$$

TNZ061-075-076-078-094-096-097-262300-
SOUTH MIDDLE TENNESSEE
  
CITY           SKY/WX    TMP DP  RH WIND       PRES   REMARKS
LAWRENCEBURG   CLEAR     55  23  28 N15G23    30.21S                  
LEWISBURG      CLEAR     57  19  23 N12G18    30.22S                  
FAYETTEVILLE   SUNNY     57  30  35 N13G18    30.19R                  
TULLAHOMA      SUNNY     57  30  35 N13       30.18S                  
WINCHESTER     SUNNY     57  30  35 NE20      30.17F                  
MCMINNVILLE    SUNNY     57  27  30 N13G18    30.20S                  
COLUMBIA       SUNNY     59  12  15 N10G16    30.21F                  
SHELBYVILLE    SUNNY     55  27  33 N16G23    30.21S                  
$$

TNZ017-018-042-046-047-262300-
NORTHEAST TENNESSEE
  
CITY           SKY/WX    TMP DP  RH WIND       PRES   REMARKS
TRI CITIES     FAIR      54  35  48 E5        30.20S                  
ELIZABETHTON   FAIR      52  36  54 E6        30.20S                  
GREENEVILLE    CLOUDY    52  39  62 NE5       30.19S                  
$$

TNZ012-013-036-069-073-074-262300-
CENTRAL EAST TENNESSEE
  
CITY           SKY/WX    TMP DP  RH WIND       PRES   REMARKS
KNOXVILLE      PTSUNNY   54  41  61 E10       30.18S                  
OAK RIDGE      FAIR      60  34  37 NE7       30.19S                  
DOWNTOWN KNOXV MOSUNNY   57  39  51 VRB6      30.19S                  
GATLINBURG     CLOUDY    52  45  76 S5        30.20R                  
MORRISTOWN     SUNNY     55  37  50 E7        30.18S                  
JACKSBORO      SUNNY     57  28  33 N8        30.23S                  
$$

TNZ083-085-099-262300-
SOUTHEAST TENNESSEE
  
CITY           SKY/WX    TMP DP  RH WIND       PRES   REMARKS
CHATTANOOGA    FAIR      62  40  44 N12G20    30.15F                  
DAYTON         PTCLDY    63  37  39 VRB6G14   30.15S                  
$$

SKY/WX REPORTED AS FAIR MEANS FEW OR NO CLOUDS BELOW
12 THOUSAND FEET.